Temperature
18 18 18 18 18 18 18 18 18 18 18 18 18 18 18 18 18 18 19 18 18 18 18 18 19 19 18 18 18 17 17 17 18 18 18 18 18 17 17 17 17 17 17
18 18 18 18 18 18 18 18 18 18 18 18 18 18 18 18 18 18 18 18 18 18 18 18 19 19 18 18 18 18 17 17 17 17 17 18 18 17 17 17 17 17 17
17 17 17 17 17 18 18 18 17 17 18 17 17 18 18 18 18 18 18 18 18 18 18 18 18 18 18 18 18 18 18 17 17 17 17 17 17 17 17 17 17 17 17
17 17 17 17 17 17 17 17 17 17 17 17 17 17 17 18 18 18 18 18 18 18 18 18 18 18 18 18 18 18 18 18 17 17 17 17 17 17 17 17 17 17 17
16 16 16 16 16 16 16 16 16 16 16 17 17 17 17 17 18 17 18 18 18 18 18 18 18 18 18 18 18 18 18 18 18 17 18 18 17 17 17 17 17 17 17
16 16 16 16 16 16 16 16 16 16 16 16 16 17 17 17 17 17 17 17 18 17 17 18 18 18 18 18 18 18 18 18 18 18 18 18 17 17 17 17 17 17 17
15 15 15 15 15 15 15 15 15 15 15 16 16 16 17 17 17 17 17 17 18 17 17 17 17 18 18 18 18 18 18 18 18 18 18 18 18 17 17 17 17 17 17
15 14 15 15 15 15 15 15 15 15 15 15 15 16 16 17 17 17 18 18 18 17 17 17 17 17 17 17 18 18 18 18 18 18 18 18 18 18 18 17 17 17 17
14 14 14 14 14 14 14 14 14 14 15 15 15 16 16 17 18 18 18 18 18 18 18 18 18 18 17 17 17 17 17 17 17 17 17 17 17 18 18 17 17 17 17
14 14 14 14 14 14 14 14 14 14 14 15 15 16 16 17 17 18 18 18 18 18 18 18 18 18 18 17 17 17 17 17 17 17 17 17 17 17 17 17 17 17 17
13 14 13 13 13 13 13 14 14 14 14 14 15 15 16 16 17 17 17 18 18 18 18 18 18 18 17 17 17 17 17 17 17 17 17 17 17 17 17 17 17 17 17
13 13 13 13 13 13 13 13 13 14 14 14 14 15 15 16 16 17 17 18 18 18 18 18 18 18 17 17 17 17 17 17 17 17 17 17 17 17 17 17 17 17 17
12 13 13 13 12 12 12 12 13 13 13 13 14 14 15 15 16 17 17 18 18 18 18 17 17 17 17 17 17 17 17 17 17 17 17 17 17 17 17 17 17 17 17
11 12 12 12 12 12 12 12 12 12 12 13 13 14 14 15 15 16 17 17 18 18 18 17 17 17 17 17 16 16 17 17 17 17 17 17 17 17 17 17 17 17 17
11 11 11 11 11 11 11 11 11 11 12 12 12 13 14 14 15 15 16 17 17 17 17 17 17 17 16 16 16 16 16 17 17 17 17 17 17 17 17 17 17 17 17
10 10 10 10 10 10 10 11 11 11 11 11 12 12 13 13 14 15 15 16 16 17 17 17 17 17 16 16 16 16 16 16 16 17 17 17 17 17 17 17 17 17 17
9 9 9 9 9 10 10 10 10 11 11 11 11 12 12 13 13 14 15 15 16 16 16 17 16 16 16 16 15 15 15 16 16 16 16 17 17 17 17 17 17 16 16
8 8 8 8 9 9 9 10 10 10 10 10 11 11 11 12 12 13 14 14 15 15 16 16 16 16 15 15 15 14 14 15 15 16 16 16 16 16 16 16 16 16 16
8 8 8 8 8 8 9 9 9 10 10 10 10 10 11 11 12 12 13 13 14 15 15 15 15 15 15 15 14 13 13 14 14 15 15 15 16 16 16 16 16 16 16
8 8 8 8 8 8 8 9 9 9 10 10 10 10 10 11 11 11 12 12 13 14 14 14 14 14 14 14 14 13 13 13 13 14 14 14 15 15 15 15 15 15 15
8 8 8 7 7 8 8 8 9 9 9 9 10 10 10 10 11 11 11 12 12 13 13 14 14 14 14 13 13 13 13 12 12 13 13 13 14 14 14 14 15 15 15
8 7 7 7 7 7 8 8 8 9 9 9 9 9 10 10 10 10 11 11 12 12 12 13 13 14 14 14 13 13 12 12 11 12 12 12 12 13 13 14 14 14 14
7 7 7 7 7 7 7 7 8 8 8 8 9 9 9 10 10 10 11 11 11 11 12 12 13 13 13 14 14 13 13 12 12 12 12 11 11 12 13 13 13 13 13
7 7 7 7 7 7 7 7 7 7 8 8 9 9 9 9 10 10 10 10 11 11 11 12 12 13 13 13 14 14 13 12 12 12 11 11 11 12 12 12 12 12 12
7 7 7 7 7 7 7 7 7 7 7 8 8 8 9 9 10 10 10 10 10 10 11 11 12 12 12 13 13 13 12 12 11 11 11 11 11 11 11 11 11 12 12
7 7 7 7 7 7 7 7 7 7 7 7 8 8 8 9 9 9 10 10 10 10 10 11 11 11 12 12 12 13 13 12 12 11 11 11 11 11 10 10 11 11 11
Wind_Speed
5 6 5 5 6 7 6 8 9 11 12 10 11 10 10 13 13 12 10 20 22 22 22 21 20 20 21 21 22 22 22 21 20 20 20 19 18 18 17 17 16 15 15
4 5 6 6 6 8 8 6 9 9 9 9 10 10 9 10 11 11 10 16 21 22 22 21 22 22 22 23 23 23 23 23 22 21 21 21 20 20 20 19 19 18 17
4 4 6 7 7 9 9 7 8 8 8 10 10 10 9 8 7 9 12 12 15 21 23 24 24 24 24 24 24 24 24 25 24 23 22 22 22 22 22 22 21 20 20
8 5 6 7 6 7 6 8 9 9 8 8 8 8 8 8 9 9 10 11 13 15 21 26 26 26 25 25 25 25 25 26 26 26 25 24 24 24 24 24 23 22 22
8 5 6 5 5 5 6 9 7 7 8 9 9 9 8 8 9 11 9 11 14 16 16 22 28 27 27 26 26 26 27 27 27 28 27 27 26 25 25 25 25 24 24
7 6 6 5 5 4 5 5 6 7 7 9 12 11 9 10 9 10 11 10 11 16 18 18 21 23 27 27 27 27 27 28 28 29 28 28 27 26 26 26 26 26 25
6 5 6 5 4 4 5 5 5 6 7 7 7 8 8 10 11 10 9 9 11 13 15 15 17 16 19 26 27 27 28 28 29 29 29 28 28 27 28 27 27 27 26
4 5 5 5 5 4 5 5 5 4 5 5 5 5 5 7 9 12 9 10 11 10 11 13 13 15 15 16 22 28 28 28 29 29 28 28 28 28 28 27 27 27 27
3 3 4 4 5 4 4 4 4 5 4 5 5 5 4 4 4 7 11 10 10 8 9 8 10 14 16 14 17 25 28 28 28 28 28 27 27 27 27 27 27 27 27
4 3 3 3 3 4 5 5 4 3 4 5 5 6 5 2 1 1 5 7 9 8 7 8 9 10 14 12 14 18 26 27 26 26 26 26 26 27 27 26 27 27 26
6 5 4 2 3 3 4 4 4 4 3 5 5 5 5 5 5 3 3 4 5 6 6 5 3 5 8 10 11 15 22 24 24 24 24 24 25 26 26 26 27 26 26
6 5 4 2 3 3 3 4 4 4 4 6 6 6 4 4 4 4 4 6 6 5 6 5 4 4 4 6 8 11 17 19 20 20 21 21 22 24 25 26 26 26 26
7 7 6 3 3 4 4 4 4 4 4 5 5 5 5 6 5 5 4 5 5 5 6 5 5 5 4 7 8 11 10 13 15 16 17 18 19 21 23 24 25 25 24
9 9 8 6 6 5 6 5 4 5 4 4 5 5 5 6 6 6 4 3 3 4 5 6 5 6 4 7 10 10 8 9 11 13 14 15 16 17 19 21 22 22 22
10 10 9 9 8 7 7 6 5 6 5 5 4 5 5 5 6 7 6 4 3 4 5 5 4 6 6 8 10 8 8 7 8 10 11 12 13 14 15 16 17 17 17
10 10 10 10 10 9 8 7 7 7 7 6 5 5 5 5 6 6 6 6 4 3 4 4 5 8 8 8 9 10 10 11 8 9 10 11 11 11 11 12 13 13 13
9 10 10 10 10 10 9 8 9 8 8 8 7 6 6 6 5 5 6 5 5 4 3 3 6 9 10 10 8 10 11 9 9 10 11 11 12 12 12 12 12 12 11
10 11 10 11 12 12 10 10 11 11 10 9 9 8 7 6 7 6 5 6 6 5 3 6 6 8 10 11 10 9 8 9 9 12 13 13 14 14 14 14 14 14 13
10 11 11 11 12 12 11 11 11 11 11 10 9 9 9 8 7 6 6 6 5 5 4 5 7 7 8 10 10 9 10 8 9 12 14 15 16 17 17 17 17 17 16
11 11 11 12 12 12 13 12 12 11 11 10 10 10 10 9 9 8 7 7 6 5 5 5 6 8 8 10 10 9 8 7 7 8 10 13 16 17 17 17 18 18 18
14 12 12 12 12 12 13 13 11 13 11 11 11 11 11 12 12 9 8 7 7 6 6 6 6 7 8 11 10 7 9 7 7 7 8 8 9 9 11 14 16 17 19
12 12 12 13 13 15 14 12 10 10 9 10 10 11 11 12 13 13 12 10 9 8 8 8 7 8 10 10 9 11 11 10 5 6 7 7 7 8 7 9 14 17 19
13 12 13 13 13 13 16 15 15 11 11 10 9 9 13 13 14 11 11 12 11 10 9 7 8 8 9 11 12 13 12 10 6 8 8 8 8 9 8 11 15 18 19
12 12 13 13 12 14 16 15 15 13 11 11 10 10 10 10 11 12 11 11 10 10 10 8 6 6 5 7 10 12 12 9 8 6 6 7 8 8 8 10 13 16 18
12 12 12 12 12 12 13 13 13 10 10 11 11 11 11 11 12 13 11 10 10 9 11 11 9 6 6 7 8 11 12 12 10 6 4 5 8 8 6 6 9 13 15
12 12 12 11 11 10 10 11 12 9 9 9 9 10 13 13 13 14 11 10 10 8 9 10 9 8 7 8 11 12 14 14 11 6 4 5 9 6 5 4 5 8 10
Wind_Direction
255 262 272 283 276 251 221 216 220 217 216 221 223 217 215 218 229 231 198 186 185 191 194 197 202 209 211 212 210 208 207 207 207 207 206 206 206 205 204 203 201 199 197
273 272 270 268 269 270 269 246 232 232 222 223 226 224 221 223 227 233 212 193 193 198 201 204 207 212 215 214 212 210 208 209 208 210 211 210 210 210 208 207 205 204 203
299 280 270 265 259 259 264 269 261 252 233 224 226 231 224 225 228 230 226 211 203 207 210 210 210 213 215 216 214 211 209 208 208 210 213 214 214 214 213 210 209 208 207
323 305 285 275 272 265 261 263 258 253 252 242 229 230 231 225 226 228 225 219 213 218 218 217 213 212 214 215 215 212 209 208 208 209 212 214 215 215 215 213 211 210 210
329 310 292 286 286 273 264 262 261 253 251 251 245 235 234 229 225 227 219 220 219 220 216 216 215 212 213 215 216 213 209 208 209 211 213 215 216 216 215 214 213 212 213
338 326 305 305 300 295 290 273 269 267 257 252 250 244 229 224 219 222 219 219 221 224 219 214 211 215 215 214 214 212 210 209 209 211 213 215 217 216 215 214 215 214 214
340 321 320 323 310 298 295 287 270 270 260 249 243 248 243 227 217 216 214 216 217 221 220 210 199 202 210 215 214 212 211 211 212 212 212 214 216 215 213 213 214 215 216
338 328 336 321 315 310 298 288 278 268 268 247 230 230 237 229 217 216 207 212 216 217 213 207 194 198 202 203 214 214 212 212 213 213 212 212 215 214 212 211 213 214 216
310 308 308 312 314 309 307 301 275 264 267 273 245 225 225 229 214 204 204 206 205 209 209 200 192 194 200 196 200 210 212 212 214 214 213 212 212 211 210 211 212 214 215
283 275 278 292 308 309 310 312 314 279 259 267 275 251 253 272 257 224 205 201 196 201 208 208 199 186 192 197 194 196 207 211 213 215 214 213 212 210 210 211 212 213 215
270 254 245 248 277 295 311 314 315 304 281 271 271 277 265 252 233 228 215 201 195 195 198 207 190 169 180 186 186 188 196 204 209 212 213 213 212 210 210 212 215 217 218
284 282 268 238 261 276 295 299 300 301 287 277 275 271 271 258 242 239 222 202 194 196 183 183 185 167 158 162 173 166 182 193 200 206 210 211 211 211 211 213 217 220 221
310 308 310 297 281 272 266 266 275 278 278 279 276 280 281 277 269 255 236 221 197 183 168 171 169 154 153 129 128 139 160 179 191 199 204 207 208 210 211 214 218 221 222
295 297 301 288 275 268 271 264 264 265 261 267 272 274 281 285 286 281 265 246 214 185 170 167 158 153 137 124 134 139 145 170 184 193 197 200 203 205 208 212 215 218 220
301 305 314 305 290 273 260 257 257 259 257 251 259 266 263 269 281 286 288 275 223 205 193 174 150 142 125 118 142 140 131 140 164 178 184 188 192 196 201 204 205 206 207
291 290 287 285 283 276 261 244 247 250 244 240 239 247 257 261 265 277 283 289 280 240 216 176 158 146 138 133 133 122 117 114 114 140 152 159 164 169 175 179 182 187 192
296 293 289 285 281 276 268 254 246 244 245 243 238 233 236 246 257 264 275 279 274 264 233 173 142 140 133 131 127 124 126 111 99 108 122 131 136 139 144 150 155 158 161
291 291 287 285 281 277 269 261 252 247 240 238 233 227 226 230 238 244 255 268 267 263 217 175 154 148 144 137 136 134 125 112 105 101 106 110 115 119 122 125 127 131 133
289 288 286 282 279 277 272 266 258 250 245 240 233 226 221 217 225 230 233 246 260 260 239 188 174 160 148 141 134 125 117 117 111 109 102 101 105 107 110 113 115 118 119
289 284 281 279 277 275 271 266 261 252 244 240 237 230 222 215 214 215 225 227 232 243 236 211 182 166 155 148 141 136 132 134 130 122 105 105 104 102 105 109 111 113 115
291 288 285 282 277 273 267 259 256 256 246 238 235 232 227 216 210 205 211 215 218 221 221 216 198 177 163 160 157 152 144 133 122 129 126 124 116 107 104 105 110 114 115
292 288 284 281 276 274 273 272 262 262 258 247 241 236 234 222 212 203 201 198 200 209 212 208 206 192 181 172 161 155 149 147 142 154 143 137 131 117 111 104 116 117 117
295 289 285 280 275 270 267 263 259 254 254 247 241 240 241 229 201 197 198 197 201 205 206 207 211 205 185 176 167 161 162 162 145 157 141 123 112 99 94 106 118 120 120
296 292 287 283 277 272 262 252 248 247 248 242 235 232 234 243 220 194 192 198 203 202 201 205 209 202 192 182 175 166 158 134 121 135 133 122 118 107 101 104 116 122 123
297 293 289 283 278 273 260 248 237 243 241 240 234 230 226 232 225 195 191 195 198 200 200 199 189 184 187 185 170 155 150 147 146 146 131 118 127 115 106 109 117 124 129
295 297 294 289 284 277 261 243 225 233 236 238 232 232 227 225 215 194 192 193 197 197 189 188 187 185 191 187 180 171 162 158 150 148 157 128 146 137 124 126 135 139 133
Height
1521 1521 1521 1522 1522 1521 1521 1520 1521 1522 1523 1524 1526 1528 1529 1530 1533 1535 1536 1537 1539 1542 1544 1546 1548 1551 1553 1556 1558 1561 1563 1566 1568 1571 1574 1576 1579 1582 1584 1586 1589 1591 1593
1517 1516 1516 1516 1516 1516 1516 1516 1516 1516 1516 1518 1520 1522 1524 1526 1527 1529 1530 1531 1533 1536 1539 1541 1544 1546 1548 1551 1554 1556 1559 1562 1565 1567 1570 1573 1576 1578 1581 1584 1586 1588 1591
1512 1511 1510 1509 1509 1510 1509 1509 1509 1510 1510 1512 1513 1516 1518 1520 1521 1523 1524 1526 1528 1531 1533 1535 1538 1540 1543 1546 1549 1551 1554 1557 1560 1563 1566 1569 1572 1575 1577 1580 1583 1585 1588
1508 1506 1504 1503 1503 1502 1502 1501 1502 1502 1503 1506 1508 1510 1512 1514 1515 1516 1518 1520 1522 1524 1527 1529 1532 1534 1537 1540 1543 1546 1549 1552 1555 1558 1561 1564 1567 1570 1573 1576 1579 1582 1585
1503 1501 1499 1498 1496 1495 1495 1495 1495 1495 1496 1499 1502 1504 1505 1507 1509 1511 1512 1513 1515 1517 1520 1523 1525 1528 1531 1535 1538 1540 1544 1547 1550 1553 1556 1559 1563 1566 1569 1572 1575 1578 1581
1500 1498 1495 1493 1491 1490 1489 1489 1489 1489 1490 1492 1495 1497 1499 1500 1502 1504 1505 1507 1508 1511 1513 1516 1519 1522 1525 1529 1532 1535 1538 1541 1544 1548 1551 1555 1558 1561 1564 1567 1571 1574 1577
1497 1494 1492 1489 1488 1486 1485 1484 1483 1483 1485 1486 1488 1490 1492 1494 1495 1497 1499 1501 1502 1504 1507 1510 1513 1516 1519 1522 1526 1529 1532 1535 1539 1542 1546 1549 1553 1556 1559 1562 1566 1569 1572
1494 1492 1489 1486 1484 1483 1481 1480 1479 1480 1480 1482 1484 1485 1486 1489 1489 1491 1492 1494 1496 1498 1502 1505 1507 1510 1514 1516 1519 1523 1526 1529 1533 1536 1540 1544 1547 1551 1554 1558 1561 1564 1568
1491 1489 1486 1484 1482 1480 1478 1477 1476 1476 1477 1478 1480 1481 1482 1482 1483 1484 1486 1489 1490 1493 1496 1499 1503 1506 1509 1511 1514 1517 1520 1523 1527 1530 1534 1538 1542 1546 1549 1553 1557 1560 1563
1488 1485 1483 1481 1479 1477 1476 1474 1474 1474 1474 1475 1475 1477 1479 1479 1480 1480 1482 1484 1486 1489 1492 1495 1498 1501 1504 1507 1509 1511 1514 1518 1521 1524 1528 1532 1536 1540 1544 1548 1551 1555 1558
1484 1482 1479 1478 1476 1475 1473 1472 1471 1471 1471 1472 1472 1473 1474 1475 1476 1478 1479 1481 1483 1485 1488 1491 1494 1497 1499 1502 1505 1507 1510 1513 1515 1519 1522 1526 1530 1534 1538 1542 1546 1550 1553
1480 1478 1477 1474 1473 1471 1470 1469 1468 1467 1467 1468 1468 1469 1470 1472 1472 1474 1476 1478 1480 1482 1484 1487 1490 1493 1495 1498 1501 1503 1505 1508 1511 1514 1517 1521 1524 1528 1532 1536 1540 1544 1548
1475 1474 1472 1470 1469 1468 1466 1465 1464 1464 1464 1464 1464 1465 1466 1467 1469 1471 1473 1475 1476 1478 1481 1484 1487 1489 1492 1494 1496 1499 1501 1504 1506 1509 1512 1515 1519 1523 1527 1531 1534 1538 1542
1470 1469 1467 1465 1464 1463 1462 1461 1460 1460 1459 1459 1460 1460 1462 1463 1464 1467 1469 1471 1473 1475 1477 1480 1483 1486 1488 1490 1492 1494 1497 1499 1502 1504 1507 1510 1514 1518 1522 1526 1529 1533 1536
1464 1462 1460 1459 1458 1457 1457 1456 1455 1455 1455 1455 1455 1456 1457 1458 1460 1462 1464 1468 1471 1472 1474 1476 1479 1481 1483 1486 1488 1490 1493 1495 1497 1500 1503 1506 1510 1514 1517 1521 1524 1527 1531
1457 1455 1454 1453 1452 1451 1451 1450 1450 1450 1450 1449 1450 1450 1452 1453 1454 1457 1459 1462 1465 1469 1470 1472 1474 1477 1480 1482 1485 1487 1489 1491 1493 1496 1499 1502 1505 1509 1513 1516 1520 1523 1526
1451 1449 1447 1446 1445 1444 1444 1444 1444 1444 1444 1444 1444 1445 1446 1448 1450 1452 1454 1457 1461 1464 1466 1469 1471 1473 1476 1479 1481 1484 1485 1488 1490 1493 1496 1499 1502 1506 1509 1512 1515 1518 1522
1445 1442 1440 1439 1438 1437 1437 1437 1437 1438 1438 1438 1439 1440 1440 1442 1444 1446 1449 1452 1455 1458 1462 1465 1467 1470 1473 1476 1479 1481 1483 1485 1487 1490 1493 1496 1499 1503 1506 1509 1512 1515 1518
1438 1436 1434 1432 1430 1430 1429 1429 1430 1430 1431 1432 1433 1434 1435 1436 1437 1440 1443 1446 1450 1453 1457 1461 1464 1467 1470 1473 1476 1479 1481 1483 1486 1488 1491 1494 1497 1500 1503 1506 1509 1512 1515
1432 1429 1427 1425 1423 1422 1421 1421 1422 1423 1424 1425 1426 1427 1429 1430 1432 1434 1437 1440 1444 1448 1452 1456 1460 1463 1466 1469 1473 1476 1479 1481 1484 1486 1489 1492 1495 1498 1501 1504 1507 1509 1512
1426 1423 1420 1417 1415 1414 1413 1413 1414 1415 1416 1417 1419 1420 1422 1424 1426 1428 1430 1433 1437 1441 1445 1450 1455 1458 1461 1465 1468 1473 1476 1479 1482 1485 1488 1490 1493 1496 1499 1502 1505 1508 1510
1419 1416 1412 1409 1407 1406 1406 1406 1406 1407 1408 1409 1411 1413 1416 1418 1420 1422 1424 1427 1430 1434 1439 1444 1449 1452 1456 1460 1464 1469 1472 1476 1480 1484 1487 1489 1492 1495 1498 1501 1504 1506 1509
1412 1408 1405 1402 1399 1397 1396 1396 1396 1398 1399 1401 1404 1406 1410 1412 1414 1416 1418 1421 1424 1427 1432 1438 1443 1446 1450 1454 1459 1464 1468 1472 1476 1480 1485 1488 1491 1494 1497 1500 1503 1505 1508
1406 1401 1397 1394 1390 1388 1387 1387 1387 1389 1390 1393 1396 1399 1402 1406 1408 1410 1413 1415 1418 1421 1426 1431 1435 1441 1446 1450 1455 1460 1464 1470 1475 1480 1483 1486 1489 1493 1496 1499 1502 1505 1507
1399 1395 1391 1387 1383 1380 1379 1379 1379 1381 1382 1385 1389 1392 1396 1399 1402 1405 1408 1411 1413 1416 1420 1425 1429 1434 1440 1445 1450 1456 1460 1465 1471 1476 1480 1483 1486 1490 1495 1498 1501 1504 1506
1394 1389 1385 1381 1377 1374 1372 1372 1373 1374 1376 1379 1383 1386 1390 1393 1397 1400 1404 1407 1409 1412 1415 1420 1424 1429 1434 1439 1445 1450 1454 1459 1465 1472 1476 1479 1483 1487 1492 1497 1499 1502 1505